Tracking 22780 objects as of 11-Apr-2021
HD Live streaming from Space Station
objects crossing your sky now

TITAN 3C TRANSTAGE DEB

Track TITAN 3C TRANSTAGE DEB now!


NORAD ID: 43448
Int'l Code: 1969-013H
Perigee: 35,063.7 km
Apogee: 37,424.6 km
Inclination: 3.9 °
Period: 1,459.2 minutes
Semi major axis: 42615 km
RCS: Unknown
Launch date: February 9, 1969
Source: United States (US)
Launch site: AIR FORCE EASTERN TEST RANGE (AFETR)

Note: This is SATELLITE DEBRIS
aabbcc
Your satellite tracking list
Your tracking list is empty




NASA's NSSDC Master Catalog

Two Line Element Set (TLE):
1 43448U 69013H   21099.98879727 -.00000102  00000-0  00000-0 0  9994
2 43448   3.9243 281.9670 0277008 187.2598 171.9176  0.98686334 10834
Source of the keplerian elements: AFSPC